HKE231 ZBAD-VHHH

Flight info

Callsign HKE231
Flight time 2h 48m
Altitude 34100
Route OMDEK7F OMDEK W37 GUSIV/K0839S1010 W37 PEXID/K0845S1040 W37 OMBEB/K0845S1010 R473 NNX/K0846S1040 R473 WYN W18 NLG W23 ZUH/K0848S1070 R473 SIERA/N0462F351
Aircraft A321/M-SDE3FGHIRWY/LB1

Departure

Time 2026-04-25 05:36
Airport Beijing Daxing International Airport (ZBAD)

Arrival

Time 2026-04-25 08:24
Airport Hong Kong International Airport (VHHH)
Time Latitude Longitude Altitude Speed Heading
2026-04-25 04:37 39.50519 116.40997 87 ft 0 kts 101°
2026-04-25 04:38 39.50519 116.41003 86 ft 0 kts 101°
2026-04-25 04:38 39.50519 116.40997 87 ft 0 kts 101°
2026-04-25 04:39 39.50519 116.41003 86 ft 0 kts 101°
2026-04-25 04:40 39.50519 116.40997 87 ft 0 kts 101°
2026-04-25 05:04 39.50519 116.40996 85 ft 0 kts 101°
2026-04-25 05:20 39.50523 116.40974 109 ft 4 kts 104°
2026-04-25 05:20 39.50531 116.40941 86 ft 4 kts 116°
2026-04-25 05:21 39.50545 116.40914 89 ft 4 kts 143°
2026-04-25 05:21 39.50564 116.40904 89 ft 1 kts 190°
2026-04-25 05:26 39.50553 116.40901 87 ft 6 kts 190°
2026-04-25 05:26 39.50503 116.40889 87 ft 9 kts 191°
2026-04-25 05:27 39.50438 116.40891 88 ft 10 kts 173°
2026-04-25 05:27 39.50368 116.40902 86 ft 11 kts 173°
2026-04-25 05:27 39.50295 116.40913 86 ft 11 kts 173°
2026-04-25 05:27 39.50224 116.40925 88 ft 9 kts 173°
2026-04-25 05:28 39.50179 116.40909 87 ft 7 kts 229°
2026-04-25 05:28 39.50164 116.40826 85 ft 11 kts 262°
2026-04-25 05:28 39.50155 116.40729 86 ft 12 kts 262°
2026-04-25 05:28 39.50144 116.40620 86 ft 12 kts 263°
2026-04-25 05:29 39.50133 116.40506 85 ft 13 kts 263°
2026-04-25 05:29 39.50122 116.40388 87 ft 13 kts 263°
2026-04-25 05:29 39.50111 116.40272 90 ft 13 kts 263°
2026-04-25 05:29 39.50102 116.40167 88 ft 8 kts 264°
2026-04-25 05:30 39.50118 116.40110 89 ft 7 kts 321°
2026-04-25 05:30 39.50177 116.40094 89 ft 11 kts 353°
2026-04-25 05:30 39.50281 116.40078 91 ft 20 kts 353°
2026-04-25 05:30 39.50432 116.40054 88 ft 23 kts 353°
2026-04-25 05:31 39.50589 116.40029 90 ft 23 kts 353°
2026-04-25 05:31 39.50745 116.40005 87 ft 23 kts 353°
2026-04-25 05:31 39.50902 116.39979 90 ft 23 kts 353°
2026-04-25 05:31 39.51055 116.39954 88 ft 22 kts 353°
2026-04-25 05:32 39.51210 116.39931 90 ft 22 kts 353°
2026-04-25 05:32 39.51363 116.39907 89 ft 22 kts 353°
2026-04-25 05:32 39.51515 116.39883 89 ft 22 kts 353°
2026-04-25 05:32 39.51662 116.39859 89 ft 17 kts 353°
2026-04-25 05:33 39.51759 116.39844 88 ft 11 kts 353°
2026-04-25 05:33 39.51796 116.39789 92 ft 5 kts 270°
2026-04-25 05:33 39.51795 116.39779 91 ft 0 kts 265°
2026-04-25 05:34 39.51795 116.39774 91 ft 2 kts 265°
2026-04-25 05:34 39.51792 116.39741 92 ft 4 kts 264°
2026-04-25 05:34 39.51790 116.39722 94 ft 3 kts 261°
2026-04-25 05:34 39.51759 116.39660 97 ft 14 kts 219°
2026-04-25 05:35 39.51664 116.39637 97 ft 14 kts 173°
2026-04-25 05:35 39.51566 116.39652 97 ft 13 kts 173°
2026-04-25 05:35 39.51441 116.39672 98 ft 27 kts 173°
2026-04-25 05:35 39.51087 116.39728 96 ft 83 kts 173°
2026-04-25 05:36 39.50325 116.39847 99 ft 138 kts 173°
2026-04-25 05:36 39.49218 116.40021 117 ft 179 kts 175°
2026-04-25 05:36 39.47987 116.40201 733 ft 178 kts 175°
2026-04-25 05:36 39.46763 116.40380 1515 ft 177 kts 174°
2026-04-25 05:37 39.45531 116.40555 2169 ft 181 kts 176°
2026-04-25 05:37 39.44262 116.40752 2656 ft 184 kts 176°
2026-04-25 05:37 39.42981 116.40948 3058 ft 187 kts 178°
2026-04-25 05:37 39.41691 116.41136 3465 ft 192 kts 178°
2026-04-25 05:38 39.40277 116.41331 3554 ft 215 kts 178°
2026-04-25 05:38 39.38713 116.41556 3704 ft 240 kts 177°
2026-04-25 05:38 39.37007 116.41816 4049 ft 256 kts 176°
2026-04-25 05:38 39.35214 116.42117 4641 ft 263 kts 175°
2026-04-25 05:39 39.33382 116.42431 5252 ft 268 kts 176°
2026-04-25 05:39 39.31515 116.42736 5846 ft 273 kts 176°
2026-04-25 05:39 39.29627 116.43038 6504 ft 275 kts 176°
2026-04-25 05:39 39.27720 116.43339 7113 ft 278 kts 176°
2026-04-25 05:40 39.25816 116.43639 7706 ft 281 kts 176°
2026-04-25 05:40 39.23865 116.43944 8314 ft 284 kts 176°
2026-04-25 05:40 39.21892 116.44251 8921 ft 287 kts 176°
2026-04-25 05:40 39.19899 116.44561 9514 ft 290 kts 176°
2026-04-25 05:41 39.17884 116.44874 10091 ft 294 kts 176°
2026-04-25 05:41 39.15785 116.45197 10256 ft 314 kts 176°
2026-04-25 05:41 39.13545 116.45539 10386 ft 334 kts 176°
2026-04-25 05:41 39.11170 116.45835 10507 ft 351 kts 181°
2026-04-25 05:42 39.08718 116.45578 10878 ft 356 kts 193°
2026-04-25 05:42 39.06335 116.44685 11398 ft 357 kts 205°
2026-04-25 05:42 39.04175 116.43215 11937 ft 358 kts 216°
2026-04-25 05:42 39.02122 116.41381 12506 ft 361 kts 217°
2026-04-25 05:43 39.00052 116.39534 13088 ft 364 kts 217°
2026-04-25 05:43 38.97963 116.37679 13666 ft 367 kts 217°
2026-04-25 05:43 38.95852 116.35809 14187 ft 370 kts 216°
2026-04-25 05:43 38.93728 116.33927 14685 ft 373 kts 217°
2026-04-25 05:44 38.91585 116.32026 15199 ft 376 kts 217°
2026-04-25 05:44 38.89422 116.30114 15713 ft 379 kts 217°
2026-04-25 05:44 38.87273 116.28215 16238 ft 382 kts 217°
2026-04-25 05:44 38.85076 116.26275 16732 ft 385 kts 217°
2026-04-25 05:45 38.82861 116.24318 17231 ft 388 kts 216°
2026-04-25 05:45 38.80629 116.22350 17724 ft 391 kts 216°
2026-04-25 05:45 38.78380 116.20367 18217 ft 394 kts 217°
2026-04-25 05:45 38.76113 116.18371 18660 ft 397 kts 217°
2026-04-25 05:46 38.73827 116.16362 19079 ft 400 kts 216°
2026-04-25 05:46 38.71522 116.14340 19510 ft 403 kts 217°
2026-04-25 05:46 38.69205 116.12312 19930 ft 405 kts 217°
2026-04-25 05:46 38.66893 116.10301 20339 ft 408 kts 215°
2026-04-25 05:47 38.64376 116.08568 20737 ft 414 kts 205°
2026-04-25 05:47 38.61667 116.07251 21128 ft 418 kts 202°
2026-04-25 05:47 38.58938 116.05953 21508 ft 420 kts 203°
2026-04-25 05:47 38.56185 116.04637 21885 ft 423 kts 203°
2026-04-25 05:48 38.53423 116.03313 22260 ft 426 kts 203°
2026-04-25 05:48 38.50642 116.01982 22630 ft 428 kts 203°
2026-04-25 05:48 38.47880 116.00662 22979 ft 431 kts 203°
2026-04-25 05:48 38.45061 115.99319 23337 ft 434 kts 203°
2026-04-25 05:49 38.42221 115.97971 23662 ft 436 kts 203°
2026-04-25 05:49 38.39366 115.96616 23951 ft 439 kts 203°
2026-04-25 05:49 38.36497 115.95251 24230 ft 442 kts 203°
2026-04-25 05:49 38.33611 115.93882 24510 ft 444 kts 203°
2026-04-25 05:50 38.31683 115.92970 24706 ft 446 kts 203°
2026-04-25 05:50 38.28741 115.91675 24970 ft 450 kts 198°
2026-04-25 05:50 38.24633 115.90731 25311 ft 456 kts 189°
2026-04-25 05:50 38.21473 115.90239 25578 ft 459 kts 189°
2026-04-25 05:51 38.18293 115.89747 25841 ft 462 kts 189°
2026-04-25 05:51 38.15097 115.89251 26102 ft 464 kts 189°
2026-04-25 05:51 38.11882 115.88748 26348 ft 467 kts 189°
2026-04-25 05:51 38.09739 115.88411 26515 ft 469 kts 189°
2026-04-25 05:52 38.06496 115.87898 26765 ft 471 kts 189°
2026-04-25 05:52 38.03236 115.87383 27012 ft 473 kts 189°
2026-04-25 05:52 37.99959 115.86870 27249 ft 476 kts 189°
2026-04-25 05:52 37.95592 115.86190 27544 ft 479 kts 189°
2026-04-25 05:53 37.92273 115.85676 27790 ft 482 kts 189°
2026-04-25 05:53 37.90017 115.85327 27958 ft 483 kts 189°
2026-04-25 05:53 37.86717 115.84809 28193 ft 486 kts 189°
2026-04-25 05:53 37.83354 115.84268 28428 ft 488 kts 189°
2026-04-25 05:54 37.79977 115.83715 28667 ft 491 kts 189°
2026-04-25 05:54 37.76589 115.83157 29022 ft 491 kts 189°
2026-04-25 05:54 37.68958 115.80726 29783 ft 486 kts 206°
2026-04-25 05:55 37.66884 115.79538 29987 ft 485 kts 207°
2026-04-25 05:55 37.63810 115.77768 30281 ft 485 kts 207°
2026-04-25 05:55 37.60731 115.76011 30559 ft 486 kts 207°
2026-04-25 05:55 37.57690 115.74285 30824 ft 486 kts 207°
2026-04-25 05:56 37.54610 115.72537 31100 ft 486 kts 207°
2026-04-25 05:56 37.51531 115.70788 31390 ft 485 kts 207°
2026-04-25 05:56 37.48453 115.69043 31674 ft 485 kts 207°
2026-04-25 05:56 37.45377 115.67300 31927 ft 485 kts 207°
2026-04-25 05:57 37.42297 115.65551 32201 ft 485 kts 208°
2026-04-25 05:57 37.39241 115.63781 32469 ft 485 kts 208°
2026-04-25 05:57 37.36184 115.61966 32742 ft 484 kts 209°
2026-04-25 05:57 37.33186 115.60162 32987 ft 484 kts 209°
2026-04-25 05:58 37.30151 115.58328 33250 ft 484 kts 209°
2026-04-25 05:58 37.27114 115.56497 33518 ft 484 kts 209°
2026-04-25 05:58 37.24076 115.54674 33762 ft 484 kts 209°
2026-04-25 05:58 37.21034 115.52861 33978 ft 485 kts 209°
2026-04-25 05:59 37.14930 115.49241 34086 ft 485 kts 208°
2026-04-25 05:59 37.08855 115.45657 34083 ft 486 kts 208°
2026-04-25 06:00 37.02742 115.42049 34085 ft 486 kts 209°
2026-04-25 06:00 36.96618 115.38421 34083 ft 487 kts 209°
2026-04-25 06:01 36.90484 115.34807 34084 ft 487 kts 208°
2026-04-25 06:01 36.84386 115.31232 34077 ft 488 kts 208°
2026-04-25 06:02 36.78237 115.27622 34076 ft 489 kts 208°
2026-04-25 06:02 36.72081 115.24008 34074 ft 490 kts 208°
2026-04-25 06:03 36.65907 115.20391 34076 ft 490 kts 208°
2026-04-25 06:03 36.59727 115.16785 34077 ft 491 kts 208°
2026-04-25 06:04 36.53581 115.13202 34079 ft 491 kts 208°
2026-04-25 06:04 36.47387 115.09600 34069 ft 492 kts 208°
2026-04-25 06:05 36.41180 115.06007 34075 ft 492 kts 208°
2026-04-25 06:05 36.34758 115.03014 34082 ft 497 kts 194°
2026-04-25 06:06 36.27938 115.01991 34088 ft 498 kts 186°
2026-04-25 06:06 36.21020 115.01286 34092 ft 499 kts 186°
2026-04-25 06:07 36.14099 115.00580 34097 ft 499 kts 186°
2026-04-25 06:07 36.07181 114.99869 34096 ft 499 kts 185°
2026-04-25 06:08 36.00300 114.99159 34102 ft 499 kts 185°
2026-04-25 06:08 35.93375 114.98456 34102 ft 499 kts 185°
2026-04-25 06:09 35.86449 114.97758 34111 ft 499 kts 185°
2026-04-25 06:09 35.79518 114.97057 34112 ft 499 kts 185°
2026-04-25 06:10 35.72594 114.96358 34117 ft 500 kts 185°
2026-04-25 06:10 35.65713 114.95662 34123 ft 500 kts 185°
2026-04-25 06:11 35.58786 114.94960 34125 ft 499 kts 185°
2026-04-25 06:11 35.51859 114.94261 34131 ft 499 kts 185°
2026-04-25 06:12 35.44944 114.93567 34138 ft 499 kts 185°
2026-04-25 06:12 35.38060 114.92877 34136 ft 499 kts 185°
2026-04-25 06:13 35.31144 114.92181 34136 ft 498 kts 185°
2026-04-25 06:14 35.20848 114.91147 34144 ft 498 kts 185°
2026-04-25 06:14 35.13947 114.90452 34154 ft 498 kts 185°
2026-04-25 06:15 35.07088 114.89768 34150 ft 497 kts 185°
2026-04-25 06:15 35.00191 114.89095 34146 ft 497 kts 185°
2026-04-25 06:16 34.93298 114.88425 34156 ft 497 kts 185°
2026-04-25 06:16 34.86424 114.87743 34159 ft 497 kts 185°
2026-04-25 06:17 34.79904 114.87093 34162 ft 496 kts 185°
2026-04-25 06:17 34.73063 114.86412 34163 ft 496 kts 185°
2026-04-25 06:18 34.66181 114.85730 34166 ft 496 kts 185°
2026-04-25 06:18 34.59303 114.85059 34165 ft 496 kts 185°
2026-04-25 06:19 34.52421 114.84386 34170 ft 496 kts 185°
2026-04-25 06:19 34.45549 114.83709 34174 ft 496 kts 185°
2026-04-25 06:20 34.38718 114.83039 34178 ft 496 kts 185°
2026-04-25 06:20 34.31847 114.82358 34168 ft 495 kts 185°
2026-04-25 06:21 34.24975 114.81686 34170 ft 495 kts 185°
2026-04-25 06:21 34.18107 114.81024 34171 ft 495 kts 185°
2026-04-25 06:22 34.11241 114.80373 34172 ft 495 kts 185°
2026-04-25 06:22 34.04426 114.79720 34179 ft 494 kts 185°
2026-04-25 06:23 33.97572 114.79050 34187 ft 494 kts 185°
2026-04-25 06:23 33.90723 114.78388 34182 ft 494 kts 185°
2026-04-25 06:24 33.83876 114.77734 34180 ft 493 kts 185°
2026-04-25 06:24 33.77086 114.77070 34182 ft 493 kts 185°
2026-04-25 06:25 33.70250 114.76379 34183 ft 492 kts 185°
2026-04-25 06:25 33.63422 114.75723 34181 ft 492 kts 185°
2026-04-25 06:26 33.56597 114.75099 34185 ft 492 kts 185°
2026-04-25 06:26 33.49779 114.74413 34182 ft 491 kts 185°
2026-04-25 06:27 33.43016 114.73704 34180 ft 491 kts 185°
2026-04-25 06:27 33.36207 114.73037 34188 ft 491 kts 185°
2026-04-25 06:28 33.29399 114.72396 34180 ft 491 kts 185°
2026-04-25 06:28 33.22597 114.71758 34175 ft 490 kts 185°
2026-04-25 06:29 33.15839 114.71104 34177 ft 490 kts 185°
2026-04-25 06:29 33.09045 114.70423 34183 ft 490 kts 185°
2026-04-25 06:30 33.02596 114.69771 34176 ft 490 kts 185°
2026-04-25 06:30 32.95807 114.69102 34173 ft 489 kts 185°
2026-04-25 06:31 32.89376 114.68478 34177 ft 489 kts 185°
2026-04-25 06:31 32.82636 114.67833 34171 ft 489 kts 185°
2026-04-25 06:32 32.75852 114.67195 34173 ft 489 kts 185°
2026-04-25 06:32 32.69068 114.66562 34166 ft 489 kts 185°
2026-04-25 06:33 32.62332 114.65927 34165 ft 489 kts 185°
2026-04-25 06:33 32.55551 114.65278 34169 ft 489 kts 185°
2026-04-25 06:34 32.48776 114.64639 34168 ft 488 kts 185°
2026-04-25 06:34 32.42007 114.64005 34169 ft 488 kts 185°
2026-04-25 06:35 32.35242 114.63370 34165 ft 488 kts 186°
2026-04-25 06:35 32.28525 114.62706 34165 ft 488 kts 186°
2026-04-25 06:36 32.21761 114.62043 34167 ft 488 kts 186°
2026-04-25 06:36 32.14998 114.61390 34160 ft 488 kts 186°
2026-04-25 06:37 32.08280 114.60744 34164 ft 488 kts 186°
2026-04-25 06:37 32.01518 114.60085 34162 ft 487 kts 186°
2026-04-25 06:38 31.94761 114.59432 34161 ft 487 kts 186°
2026-04-25 06:38 31.88000 114.58786 34163 ft 487 kts 186°
2026-04-25 06:39 31.81581 114.58171 34161 ft 487 kts 186°
2026-04-25 06:39 31.74871 114.57519 34153 ft 487 kts 186°
2026-04-25 06:40 31.68113 114.56866 34154 ft 487 kts 186°
2026-04-25 06:40 31.61358 114.56218 34151 ft 487 kts 186°
2026-04-25 06:41 31.54607 114.55577 34149 ft 487 kts 187°
2026-04-25 06:41 31.47900 114.54934 34148 ft 487 kts 187°
2026-04-25 06:42 31.41161 114.54292 34148 ft 486 kts 187°
2026-04-25 06:42 31.34417 114.53651 34148 ft 486 kts 187°
2026-04-25 06:43 31.27686 114.52981 34147 ft 484 kts 191°
2026-04-25 06:43 31.21311 114.50948 34141 ft 475 kts 208°
2026-04-25 06:44 31.15361 114.47636 34146 ft 473 kts 210°
2026-04-25 06:44 31.09414 114.44339 34143 ft 474 kts 210°
2026-04-25 06:45 31.03454 114.41051 34141 ft 474 kts 210°
2026-04-25 06:45 30.97539 114.37786 34139 ft 473 kts 210°
2026-04-25 06:46 30.91594 114.34501 34138 ft 473 kts 210°
2026-04-25 06:46 30.85601 114.31306 34136 ft 474 kts 208°
2026-04-25 06:47 30.79568 114.28190 34131 ft 474 kts 209°
2026-04-25 06:47 30.73576 114.24995 34131 ft 473 kts 210°
2026-04-25 06:48 30.67664 114.21743 34132 ft 474 kts 210°
2026-04-25 06:48 30.61700 114.18472 34139 ft 474 kts 210°
2026-04-25 06:49 30.55725 114.15236 34143 ft 474 kts 210°
2026-04-25 06:49 30.49744 114.12014 34142 ft 474 kts 210°
2026-04-25 06:50 30.43804 114.08816 34143 ft 474 kts 210°
2026-04-25 06:50 30.37834 114.05594 34144 ft 473 kts 211°
2026-04-25 06:51 30.31863 114.02378 34144 ft 473 kts 211°
2026-04-25 06:51 30.25898 113.99173 34145 ft 472 kts 211°
2026-04-25 06:52 30.19983 113.96001 34147 ft 471 kts 211°
2026-04-25 06:52 30.14036 113.92814 34149 ft 471 kts 211°
2026-04-25 06:53 30.08102 113.89640 34151 ft 470 kts 211°
2026-04-25 06:53 30.02168 113.86477 34147 ft 469 kts 211°
2026-04-25 06:54 29.96289 113.83339 34140 ft 468 kts 211°
2026-04-25 06:54 29.90381 113.80204 34139 ft 468 kts 209°
2026-04-25 06:55 29.84014 113.78264 34137 ft 481 kts 191°
2026-04-25 06:55 29.77312 113.77784 34139 ft 482 kts 188°
2026-04-25 06:56 29.70614 113.77319 34140 ft 482 kts 189°
2026-04-25 06:56 29.63972 113.76855 34145 ft 481 kts 189°
2026-04-25 06:57 29.57306 113.76391 34145 ft 480 kts 189°
2026-04-25 06:57 29.50642 113.75933 34149 ft 479 kts 189°
2026-04-25 06:58 29.43999 113.75471 34150 ft 478 kts 189°
2026-04-25 06:58 29.37417 113.75016 34153 ft 477 kts 189°
2026-04-25 06:59 29.30800 113.74559 34158 ft 476 kts 190°
2026-04-25 06:59 29.24198 113.74101 34165 ft 475 kts 189°
2026-04-25 07:00 29.17571 113.73991 34163 ft 478 kts 185°
2026-04-25 07:00 29.10969 113.74294 34172 ft 477 kts 184°
2026-04-25 07:01 29.04349 113.74632 34169 ft 475 kts 185°
2026-04-25 07:01 28.97755 113.74849 34169 ft 473 kts 186°
2026-04-25 07:02 28.91173 113.75001 34165 ft 473 kts 186°
2026-04-25 07:02 28.84642 113.75176 34166 ft 472 kts 186°
2026-04-25 07:03 28.78079 113.75377 34166 ft 471 kts 186°
2026-04-25 07:03 28.71564 113.75350 34166 ft 464 kts 192°
2026-04-25 07:04 28.65121 113.74868 34167 ft 464 kts 192°
2026-04-25 07:04 28.58685 113.74393 34158 ft 463 kts 192°
2026-04-25 07:05 28.52306 113.73924 34169 ft 463 kts 192°
2026-04-25 07:05 28.45885 113.73450 34171 ft 462 kts 192°
2026-04-25 07:06 28.39462 113.72977 34157 ft 462 kts 192°
2026-04-25 07:06 28.33092 113.72514 34152 ft 462 kts 192°
2026-04-25 07:07 28.26735 113.72055 34160 ft 462 kts 192°
2026-04-25 07:07 28.20320 113.71589 34163 ft 462 kts 192°
2026-04-25 07:08 28.13909 113.71118 34162 ft 462 kts 193°
2026-04-25 07:08 28.07508 113.70610 34168 ft 460 kts 194°
2026-04-25 07:09 28.01186 113.70033 34170 ft 459 kts 194°
2026-04-25 07:09 27.94832 113.69442 34168 ft 457 kts 194°
2026-04-25 07:10 27.88490 113.68869 34163 ft 457 kts 194°
2026-04-25 07:10 27.82201 113.68313 34167 ft 456 kts 195°
2026-04-25 07:11 27.75875 113.67761 34168 ft 456 kts 195°
2026-04-25 07:11 27.69563 113.67198 34165 ft 454 kts 195°
2026-04-25 07:12 27.63268 113.66653 34158 ft 455 kts 195°
2026-04-25 07:12 27.53726 113.66382 34158 ft 459 kts 192°
2026-04-25 07:13 27.47390 113.66346 34159 ft 458 kts 192°
2026-04-25 07:13 27.41036 113.66244 34160 ft 455 kts 193°
2026-04-25 07:14 27.34722 113.66094 34151 ft 453 kts 194°
2026-04-25 07:14 27.28424 113.65934 34148 ft 452 kts 194°
2026-04-25 07:15 27.22173 113.65784 34149 ft 452 kts 193°
2026-04-25 07:15 27.15789 113.66325 34150 ft 476 kts 178°
2026-04-25 07:16 27.09339 113.68231 34158 ft 479 kts 177°
2026-04-25 07:16 27.02898 113.70145 34155 ft 478 kts 177°
2026-04-25 07:17 26.96519 113.72030 34149 ft 477 kts 177°
2026-04-25 07:17 26.90098 113.73912 34147 ft 477 kts 177°
2026-04-25 07:18 26.83685 113.75792 34144 ft 476 kts 176°
2026-04-25 07:18 26.77277 113.77678 34150 ft 476 kts 176°
2026-04-25 07:19 26.70912 113.79564 34139 ft 477 kts 175°
2026-04-25 07:19 26.64518 113.81572 34135 ft 478 kts 174°
2026-04-25 07:20 26.58122 113.83623 34137 ft 478 kts 174°
2026-04-25 07:20 26.51753 113.85630 34136 ft 477 kts 174°
2026-04-25 07:21 26.45330 113.87573 34140 ft 476 kts 175°
2026-04-25 07:21 26.38959 113.89380 34132 ft 476 kts 176°
2026-04-25 07:22 26.32539 113.91199 34131 ft 477 kts 175°
2026-04-25 07:22 26.26110 113.93050 34135 ft 477 kts 175°
2026-04-25 07:23 26.19674 113.94923 34139 ft 478 kts 175°
2026-04-25 07:23 26.13293 113.96774 34135 ft 477 kts 175°
2026-04-25 07:24 26.06867 113.98620 34139 ft 477 kts 175°
2026-04-25 07:24 26.00440 114.00465 34135 ft 477 kts 174°
2026-04-25 07:25 25.94024 114.02354 34135 ft 477 kts 174°
2026-04-25 07:25 25.87653 114.04266 34136 ft 477 kts 174°
2026-04-25 07:26 25.81251 114.06180 34143 ft 476 kts 174°
2026-04-25 07:26 25.74861 114.08073 34147 ft 475 kts 174°
2026-04-25 07:27 25.68488 114.09956 34145 ft 473 kts 174°
2026-04-25 07:27 25.62133 114.11840 34144 ft 472 kts 173°
2026-04-25 07:28 25.55839 114.13707 34137 ft 471 kts 173°
2026-04-25 07:28 25.49512 114.15569 34140 ft 470 kts 173°
2026-04-25 07:29 25.43204 114.17424 34139 ft 468 kts 173°
2026-04-25 07:29 25.36913 114.19276 34145 ft 467 kts 173°
2026-04-25 07:30 25.30689 114.21107 34144 ft 465 kts 173°
2026-04-25 07:30 25.24447 114.22941 34137 ft 464 kts 173°
2026-04-25 07:31 25.18217 114.24768 34133 ft 463 kts 173°
2026-04-25 07:31 25.11979 114.26467 34127 ft 456 kts 180°
2026-04-25 07:32 25.05834 114.26502 34123 ft 437 kts 197°
2026-04-25 07:32 25.00215 114.25289 34112 ft 434 kts 199°
2026-04-25 07:33 24.94284 114.23997 34113 ft 435 kts 198°
2026-04-25 07:33 24.88620 114.22778 34115 ft 436 kts 198°
2026-04-25 07:34 24.82703 114.21498 34106 ft 436 kts 198°
2026-04-25 07:34 24.76748 114.20197 34112 ft 437 kts 199°
2026-04-25 07:35 24.70770 114.18897 34106 ft 438 kts 198°
2026-04-25 07:35 24.64790 114.17600 34116 ft 438 kts 198°
2026-04-25 07:36 24.58838 114.16315 34117 ft 439 kts 198°
2026-04-25 07:36 24.52848 114.15024 34117 ft 439 kts 198°
2026-04-25 07:37 24.46846 114.13724 34115 ft 439 kts 198°
2026-04-25 07:37 24.40845 114.12430 34111 ft 440 kts 198°
2026-04-25 07:38 24.34838 114.11133 34110 ft 440 kts 199°
2026-04-25 07:38 24.28968 114.09527 34110 ft 436 kts 202°
2026-04-25 07:39 24.23149 114.07640 34111 ft 436 kts 203°
2026-04-25 07:39 24.17894 114.05942 34106 ft 437 kts 202°
2026-04-25 07:40 24.12032 114.04137 34105 ft 438 kts 202°
2026-04-25 07:40 24.06199 114.02382 34105 ft 438 kts 202°
2026-04-25 07:41 24.00314 114.00611 34105 ft 439 kts 202°
2026-04-25 07:41 23.94429 113.98841 34106 ft 439 kts 202°
2026-04-25 07:42 23.88548 113.97058 34106 ft 439 kts 202°
2026-04-25 07:42 23.82698 113.95279 34109 ft 439 kts 202°
2026-04-25 07:43 23.76807 113.93497 34109 ft 440 kts 201°
2026-04-25 07:43 23.70906 113.91718 34102 ft 440 kts 201°
2026-04-25 07:44 23.65001 113.89938 34107 ft 440 kts 201°
2026-04-25 07:44 23.59137 113.88169 34109 ft 440 kts 201°
2026-04-25 07:45 23.53237 113.86385 34109 ft 440 kts 201°
2026-04-25 07:45 23.47336 113.84604 34102 ft 440 kts 201°
2026-04-25 07:46 23.41441 113.82822 34100 ft 440 kts 201°
2026-04-25 07:46 23.35587 113.81060 34098 ft 439 kts 201°
2026-04-25 07:47 23.29690 113.79290 34099 ft 439 kts 202°
2026-04-25 07:47 23.23827 113.77527 34094 ft 428 kts 202°
2026-04-25 07:48 23.20998 113.76685 34095 ft 416 kts 202°
2026-04-25 07:48 23.18198 113.75845 34038 ft 422 kts 202°
2026-04-25 07:48 23.15362 113.74983 33781 ft 435 kts 202°
2026-04-25 07:48 23.12418 113.74084 33522 ft 443 kts 202°
2026-04-25 07:49 23.09436 113.73180 33259 ft 445 kts 201°
2026-04-25 07:49 23.06448 113.72286 33002 ft 445 kts 201°
2026-04-25 07:49 23.03471 113.71401 32742 ft 444 kts 201°
2026-04-25 07:49 23.00492 113.70515 32489 ft 443 kts 201°
2026-04-25 07:50 22.97524 113.69630 32237 ft 441 kts 201°
2026-04-25 07:50 22.94571 113.68748 31987 ft 440 kts 201°
2026-04-25 07:50 22.91621 113.67865 31740 ft 439 kts 201°
2026-04-25 07:50 22.88722 113.66996 31498 ft 437 kts 201°
2026-04-25 07:51 22.85799 113.66114 31263 ft 436 kts 201°
2026-04-25 07:51 22.82890 113.65225 31018 ft 435 kts 201°
2026-04-25 07:51 22.79976 113.64328 30780 ft 434 kts 201°
2026-04-25 07:51 22.77077 113.63436 30541 ft 432 kts 201°
2026-04-25 07:52 22.74187 113.62550 30302 ft 431 kts 201°
2026-04-25 07:52 22.71299 113.61669 30061 ft 430 kts 200°
2026-04-25 07:52 22.68419 113.60795 29789 ft 429 kts 200°
2026-04-25 07:52 22.65551 113.59928 29533 ft 427 kts 200°
2026-04-25 07:53 22.62737 113.59075 29261 ft 425 kts 200°
2026-04-25 07:53 22.59894 113.58213 28986 ft 423 kts 200°
2026-04-25 07:53 22.57070 113.57356 28728 ft 421 kts 200°
2026-04-25 07:53 22.54255 113.56504 28458 ft 419 kts 200°
2026-04-25 07:54 22.51454 113.55655 28197 ft 417 kts 201°
2026-04-25 07:54 22.48668 113.54802 27938 ft 415 kts 201°
2026-04-25 07:54 22.45894 113.53946 27682 ft 413 kts 201°
2026-04-25 07:54 22.43138 113.53095 27429 ft 412 kts 201°
2026-04-25 07:55 22.40387 113.52245 27180 ft 410 kts 201°
2026-04-25 07:55 22.38795 113.51754 27034 ft 409 kts 201°
2026-04-25 07:55 22.36066 113.50915 26782 ft 408 kts 201°
2026-04-25 07:56 22.33344 113.50080 26544 ft 406 kts 201°
2026-04-25 07:56 22.30628 113.49249 26306 ft 405 kts 200°
2026-04-25 07:56 22.27924 113.48425 26067 ft 403 kts 200°
2026-04-25 07:56 22.25210 113.47674 25822 ft 405 kts 194°
2026-04-25 07:57 22.22386 113.47412 25590 ft 409 kts 184°
2026-04-25 07:57 22.19554 113.47733 25214 ft 412 kts 173°
2026-04-25 07:57 22.16794 113.48618 24750 ft 415 kts 165°
2026-04-25 07:57 22.14106 113.49621 24298 ft 414 kts 165°
2026-04-25 07:58 22.11379 113.50630 23839 ft 414 kts 166°
2026-04-25 07:58 22.08659 113.51626 23366 ft 413 kts 166°
2026-04-25 07:58 22.05946 113.52614 22905 ft 410 kts 165°
2026-04-25 07:58 22.03253 113.53592 22453 ft 407 kts 165°
2026-04-25 07:59 22.00578 113.54567 22014 ft 405 kts 165°
2026-04-25 07:59 21.97926 113.55552 21562 ft 402 kts 163°
2026-04-25 07:59 21.95311 113.56642 21068 ft 402 kts 161°
2026-04-25 07:59 21.92739 113.57818 20620 ft 400 kts 159°
2026-04-25 08:00 21.90242 113.59011 20045 ft 395 kts 159°
2026-04-25 08:00 21.87765 113.60209 19538 ft 386 kts 159°
2026-04-25 08:00 21.85330 113.61378 19034 ft 382 kts 159°
2026-04-25 08:00 21.82906 113.62519 18514 ft 379 kts 159°
2026-04-25 08:01 21.80488 113.63635 17975 ft 377 kts 159°
2026-04-25 08:01 21.78083 113.64734 17448 ft 374 kts 159°
2026-04-25 08:01 21.75704 113.65864 16934 ft 374 kts 153°
2026-04-25 08:01 21.73646 113.67560 16417 ft 376 kts 133°
2026-04-25 08:02 21.72235 113.69869 15916 ft 376 kts 113°
2026-04-25 08:02 21.71609 113.72579 15402 ft 375 kts 93°
2026-04-25 08:02 21.71813 113.75347 14745 ft 366 kts 74°
2026-04-25 08:02 21.72790 113.77817 14107 ft 356 kts 55°
2026-04-25 08:03 21.74383 113.79804 13453 ft 349 kts 40°
2026-04-25 08:03 21.76168 113.81546 12862 ft 345 kts 40°
2026-04-25 08:03 21.77932 113.83269 12689 ft 345 kts 40°
2026-04-25 08:03 21.79720 113.85015 12540 ft 348 kts 40°
2026-04-25 08:04 21.81482 113.86739 12341 ft 347 kts 40°
2026-04-25 08:04 21.83167 113.88588 12134 ft 347 kts 51°
2026-04-25 08:04 21.84411 113.90811 11934 ft 348 kts 65°
2026-04-25 08:04 21.85117 113.93295 11736 ft 348 kts 80°
2026-04-25 08:05 21.85284 113.95893 11539 ft 348 kts 88°
2026-04-25 08:05 21.85344 113.98465 11340 ft 347 kts 88°
2026-04-25 08:05 21.85414 114.01058 11141 ft 346 kts 88°
2026-04-25 08:05 21.85487 114.03641 10939 ft 344 kts 88°
2026-04-25 08:06 21.85560 114.06214 10745 ft 343 kts 88°
2026-04-25 08:06 21.85632 114.08777 10551 ft 342 kts 88°
2026-04-25 08:06 21.85699 114.11286 10351 ft 335 kts 88°
2026-04-25 08:06 21.85760 114.13702 10049 ft 315 kts 88°
2026-04-25 08:07 21.85818 114.16036 9739 ft 307 kts 88°
2026-04-25 08:07 21.85877 114.18319 9616 ft 305 kts 88°
2026-04-25 08:07 21.86045 114.20584 9488 ft 303 kts 78°
2026-04-25 08:07 21.86670 114.22740 9362 ft 301 kts 65°
2026-04-25 08:08 21.87509 114.24813 9237 ft 302 kts 65°
2026-04-25 08:08 21.88340 114.26882 9115 ft 301 kts 65°
2026-04-25 08:08 21.89169 114.28947 9013 ft 300 kts 65°
2026-04-25 08:08 21.89998 114.31013 8921 ft 301 kts 65°
2026-04-25 08:09 21.90811 114.33053 8768 ft 300 kts 65°
2026-04-25 08:09 21.91632 114.35116 8597 ft 299 kts 65°
2026-04-25 08:09 21.92452 114.37172 8430 ft 298 kts 65°
2026-04-25 08:09 21.93268 114.39221 8269 ft 297 kts 66°
2026-04-25 08:10 21.94146 114.41226 8096 ft 295 kts 55°
2026-04-25 08:10 21.95547 114.42807 7935 ft 291 kts 32°
2026-04-25 08:10 21.97374 114.43677 7780 ft 287 kts
2026-04-25 08:10 21.99344 114.43750 7609 ft 283 kts 348°
2026-04-25 08:11 22.01251 114.43367 7457 ft 283 kts 347°
2026-04-25 08:11 22.03181 114.42968 7295 ft 283 kts 347°
2026-04-25 08:11 22.05111 114.42570 7138 ft 282 kts 347°
2026-04-25 08:11 22.07040 114.42176 6972 ft 282 kts 347°
2026-04-25 08:12 22.08970 114.41784 6816 ft 282 kts 347°
2026-04-25 08:12 22.10897 114.41393 6656 ft 282 kts 347°
2026-04-25 08:12 22.12822 114.41001 6504 ft 281 kts 347°
2026-04-25 08:12 22.14742 114.40609 6342 ft 281 kts 347°
2026-04-25 08:13 22.16660 114.40216 6180 ft 280 kts 347°
2026-04-25 08:13 22.18542 114.39826 6027 ft 279 kts 345°
2026-04-25 08:13 22.20382 114.39204 5926 ft 277 kts 339°
2026-04-25 08:14 22.24023 114.37862 5775 ft 276 kts 339°
2026-04-25 08:14 22.25842 114.37193 5646 ft 275 kts 339°
2026-04-25 08:14 22.27652 114.36528 5525 ft 274 kts 339°
2026-04-25 08:14 22.29456 114.35865 5407 ft 274 kts 339°
2026-04-25 08:15 22.31232 114.35211 5289 ft 273 kts 339°
2026-04-25 08:15 22.33024 114.34549 5170 ft 272 kts 339°
2026-04-25 08:15 22.34814 114.33887 5046 ft 272 kts 339°
2026-04-25 08:15 22.36602 114.33226 4925 ft 271 kts 340°
2026-04-25 08:16 22.38307 114.32386 4798 ft 269 kts 324°
2026-04-25 08:16 22.39662 114.31026 4678 ft 266 kts 306°
2026-04-25 08:16 22.40532 114.29296 4543 ft 258 kts 287°
2026-04-25 08:16 22.40922 114.27445 4435 ft 248 kts 280°
2026-04-25 08:17 22.41231 114.25700 4523 ft 225 kts 281°
2026-04-25 08:17 22.41520 114.24114 4525 ft 205 kts 281°
2026-04-25 08:17 22.41781 114.22691 4533 ft 191 kts 281°
2026-04-25 08:17 22.42036 114.21291 4512 ft 189 kts 281°
2026-04-25 08:18 22.42195 114.19885 4505 ft 189 kts 267°
2026-04-25 08:18 22.41894 114.18505 4414 ft 189 kts 251°
2026-04-25 08:18 22.41455 114.17163 4296 ft 189 kts 251°
2026-04-25 08:18 22.41018 114.15816 4243 ft 191 kts 251°
2026-04-25 08:19 22.40585 114.14467 4120 ft 189 kts 251°
2026-04-25 08:19 22.40153 114.13122 3981 ft 189 kts 251°
2026-04-25 08:19 22.39722 114.11775 3891 ft 189 kts 251°
2026-04-25 08:19 22.39297 114.10450 3703 ft 189 kts 251°
2026-04-25 08:20 22.38865 114.09101 3460 ft 190 kts 251°
2026-04-25 08:20 22.38432 114.07750 3209 ft 191 kts 251°
2026-04-25 08:20 22.38000 114.06403 2951 ft 185 kts 251°
2026-04-25 08:20 22.37605 114.05171 2711 ft 166 kts 251°
2026-04-25 08:21 22.37236 114.04023 2491 ft 159 kts 251°
2026-04-25 08:21 22.36877 114.02904 2291 ft 156 kts 251°
2026-04-25 08:21 22.36523 114.01801 2083 ft 155 kts 251°
2026-04-25 08:21 22.36171 114.00705 1869 ft 154 kts 251°
2026-04-25 08:22 22.35825 113.99628 1673 ft 154 kts 251°
2026-04-25 08:22 22.35475 113.98538 1460 ft 153 kts 250°
2026-04-25 08:22 22.35127 113.97454 1256 ft 153 kts 250°
2026-04-25 08:22 22.34779 113.96374 1050 ft 152 kts 250°
2026-04-25 08:23 22.34435 113.95303 843 ft 150 kts 251°
2026-04-25 08:23 22.34096 113.94245 647 ft 148 kts 251°
2026-04-25 08:23 22.33757 113.93192 424 ft 148 kts 251°
2026-04-25 08:23 22.33419 113.92147 235 ft 147 kts 251°
2026-04-25 08:24 22.33089 113.91119 47 ft 145 kts 252°
2026-04-25 08:24 22.32801 113.90209 36 ft 107 kts 251°
2026-04-25 08:24 22.32613 113.89626 37 ft 58 kts 251°
2026-04-25 08:24 22.32509 113.89324 35 ft 36 kts 244°
2026-04-25 08:25 22.32374 113.89166 36 ft 17 kts 219°
2026-04-25 08:25 22.32278 113.89131 37 ft 16 kts 162°
2026-04-25 08:25 22.32208 113.89172 37 ft 11 kts 122°
2026-04-25 08:25 22.32218 113.89251 37 ft 11 kts 70°
2026-04-25 08:26 22.32246 113.89336 37 ft 13 kts 71°
2026-04-25 08:26 22.32271 113.89413 36 ft 11 kts 70°
2026-04-25 08:26 22.32289 113.89469 37 ft 12 kts 71°
2026-04-25 08:26 22.32327 113.89587 37 ft 13 kts 71°
2026-04-25 08:27 22.32359 113.89689 36 ft 15 kts 71°
2026-04-25 08:27 22.32394 113.89797 37 ft 16 kts 71°
2026-04-25 08:27 22.32432 113.89912 37 ft 17 kts 71°
2026-04-25 08:27 22.32470 113.90032 35 ft 17 kts 71°
2026-04-25 08:28 22.32497 113.90115 37 ft 18 kts 71°
2026-04-25 08:28 22.32531 113.90221 37 ft 14 kts 71°
2026-04-25 08:28 22.32543 113.90282 37 ft 8 kts 100°
2026-04-25 08:28 22.32500 113.90318 37 ft 9 kts 160°
2026-04-25 08:29 22.32405 113.90354 37 ft 14 kts 161°
2026-04-25 08:29 22.32311 113.90389 37 ft 15 kts 161°
2026-04-25 08:29 22.32244 113.90414 37 ft 16 kts 160°
2026-04-25 08:29 22.32140 113.90454 37 ft 16 kts 161°
2026-04-25 08:30 22.32029 113.90495 37 ft 17 kts 161°
2026-04-25 08:30 22.31912 113.90539 37 ft 18 kts 161°
2026-04-25 08:30 22.31788 113.90586 37 ft 19 kts 161°
2026-04-25 08:30 22.31652 113.90637 37 ft 6 kts 166°
2026-04-25 08:31 22.31622 113.90599 37 ft 11 kts 255°
2026-04-25 08:31 22.31607 113.90543 37 ft 12 kts 254°
2026-04-25 08:31 22.31580 113.90455 37 ft 13 kts 251°
2026-04-25 08:31 22.31549 113.90359 36 ft 14 kts 251°
2026-04-25 08:32 22.31516 113.90254 36 ft 15 kts 251°
2026-04-25 08:32 22.31480 113.90143 35 ft 16 kts 251°
2026-04-25 08:32 22.31442 113.90026 37 ft 17 kts 251°
2026-04-25 08:32 22.31402 113.89903 37 ft 18 kts 251°
2026-04-25 08:33 22.31368 113.89798 37 ft 9 kts 249°
2026-04-25 08:33 22.31314 113.89769 37 ft 10 kts 168°
2026-04-25 08:33 22.31247 113.89794 37 ft 11 kts 161°
2026-04-25 08:33 22.31171 113.89823 37 ft 12 kts 161°
2026-04-25 08:34 22.31085 113.89855 37 ft 14 kts 161°
2026-04-25 08:34 22.30992 113.89890 37 ft 15 kts 161°
2026-04-25 08:34 22.30907 113.89922 37 ft 9 kts 160°
2026-04-25 08:34 22.30874 113.89971 37 ft 9 kts 88°
2026-04-25 08:35 22.30895 113.90040 37 ft 10 kts 70°
2026-04-25 08:35 22.30919 113.90118 37 ft 13 kts 71°
2026-04-25 08:35 22.30955 113.90227 37 ft 18 kts 71°
2026-04-25 08:35 22.30996 113.90354 37 ft 18 kts 70°
2026-04-25 08:36 22.31033 113.90470 36 ft 16 kts 70°
2026-04-25 08:36 22.31068 113.90577 36 ft 14 kts 71°
2026-04-25 08:36 22.31101 113.90679 37 ft 15 kts 70°
2026-04-25 08:36 22.31135 113.90785 37 ft 15 kts 71°
2026-04-25 08:37 22.31170 113.90894 37 ft 16 kts 71°
2026-04-25 08:37 22.31206 113.91007 36 ft 16 kts 71°
2026-04-25 08:37 22.31245 113.91126 36 ft 17 kts 71°
2026-04-25 08:37 22.31285 113.91250 37 ft 18 kts 70°
2026-04-25 08:38 22.31324 113.91370 37 ft 16 kts 71°
2026-04-25 08:38 22.31359 113.91478 37 ft 14 kts 70°
2026-04-25 08:38 22.31389 113.91573 37 ft 12 kts 71°
2026-04-25 08:38 22.31417 113.91658 35 ft 11 kts 70°
2026-04-25 08:39 22.31442 113.91737 37 ft 11 kts 71°
2026-04-25 08:39 22.31432 113.91797 37 ft 9 kts 139°
2026-04-25 08:39 22.31368 113.91824 37 ft 12 kts 161°
2026-04-25 08:39 22.31288 113.91854 37 ft 13 kts 161°
2026-04-25 08:40 22.31212 113.91883 37 ft 8 kts 161°
2026-04-25 08:40 22.31176 113.91880 37 ft 4 kts 224°
2026-04-25 08:40 22.31166 113.91851 37 ft 5 kts 252°
2026-04-25 08:40 22.31160 113.91833 37 ft 1 kts 251°
2026-04-25 08:41 22.31159 113.91829 37 ft 1 kts 251°
2026-04-25 08:41 22.31156 113.91820 37 ft 0 kts 251°
2026-04-25 08:53 22.31156 113.91821 37 ft 0 kts 251°